Temp
20 20 19 18 17 17 17 17 17 17 18 18 18 18 18 19 19 18 18 17 17 18 18 17 17 17 16 17 17 16 15 16 16 15 14 14 13 13 13 12 12 12 12
20 19 19 18 17 17 17 17 17 17 17 18 18 18 18 18 19 18 17 17 17 18 18 17 17 16 16 16 16 16 16 16 15 16 15 14 13 13 13 12 11 12 12
20 20 19 18 18 17 17 17 17 17 18 18 17 18 18 18 18 18 17 17 17 18 17 17 17 16 16 17 17 16 16 16 15 16 15 14 14 13 13 12 12 12 11
20 19 19 18 18 17 17 17 17 17 18 17 17 18 18 18 18 17 17 17 17 18 17 17 17 16 17 16 16 16 16 16 16 16 15 14 14 14 13 12 12 12 12
20 20 19 18 18 18 17 17 17 18 17 17 17 18 18 19 17 18 17 17 18 18 17 17 17 16 16 16 16 16 16 16 16 15 15 14 13 13 12 13 12 12 12
20 20 19 18 18 17 17 17 17 18 18 17 18 18 18 17 17 17 16 17 18 17 17 17 17 17 16 17 16 16 15 15 15 15 14 13 13 13 13 12 11 11 12
20 20 19 18 18 18 17 17 18 18 18 18 18 18 18 17 17 17 16 17 17 17 17 17 17 17 17 17 16 16 16 15 15 14 14 14 14 14 14 13 13 12 11
22 20 19 18 18 18 18 18 18 18 18 18 18 17 17 17 17 16 16 16 17 17 16 16 17 17 17 17 16 16 15 15 14 14 14 15 14 14 14 14 13 13 12
22 20 20 19 19 19 19 19 19 19 18 18 17 18 17 18 17 16 16 16 17 16 16 16 17 16 16 16 16 16 16 15 15 15 15 15 14 14 14 13 13 11 11
22 22 20 20 20 19 19 19 19 18 18 18 18 17 16 16 16 17 17 16 16 16 16 16 16 16 16 16 15 15 15 15 14 14 14 13 13 14 13 13 13 11 11
23 22 21 21 21 20 19 19 19 19 18 17 17 17 16 16 16 17 17 16 16 16 16 16 16 16 16 15 15 15 14 13 14 14 13 13 12 13 13 12 12 11 11
23 23 22 21 21 20 20 20 20 19 18 17 17 17 16 16 16 17 16 16 15 15 16 16 16 15 15 15 15 15 13 13 13 13 13 13 12 13 12 13 12 12 11
23 23 22 22 21 21 20 20 19 19 19 18 18 17 17 17 17 17 16 16 15 15 15 16 16 15 15 16 16 15 14 14 13 13 13 13 13 13 12 12 12 12 12
24 23 22 22 22 21 21 20 19 19 19 18 18 18 18 18 17 18 18 16 15 15 15 15 15 15 16 16 15 15 15 15 14 14 14 13 13 14 13 13 12 11 11
23 23 23 22 22 22 21 21 21 20 20 20 20 20 19 19 19 18 18 18 18 17 16 15 16 16 16 16 16 16 16 15 15 15 15 15 14 13 13 13 13 11 10
23 22 22 23 22 21 21 21 21 20 20 20 19 19 19 18 18 18 17 18 18 17 16 16 16 16 16 16 17 17 16 16 16 16 15 15 14 14 13 12 13 11 11
23 23 23 23 22 22 22 21 21 21 21 20 20 19 18 18 18 18 17 18 17 16 16 17 17 17 17 17 17 17 17 16 16 16 16 15 15 14 13 12 11 12 10
22 22 22 23 22 23 22 22 21 22 22 22 22 21 20 19 18 18 18 17 18 17 16 17 19 19 18 18 18 18 17 16 16 16 15 15 15 14 12 12 11 11 11
21 20 22 21 20 20 20 21 21 21 21 21 21 21 21 20 19 17 17 17 19 20 19 20 21 20 20 20 20 19 18 17 17 16 16 15 15 15 13 12 12 11 11
18 18 20 18 18 19 20 18 18 18 18 18 19 21 21 20 20 19 18 18 19 19 20 21 21 21 21 20 20 20 19 18 18 17 17 16 15 15 14 12 12 12 11
18 18 19 18 19 19 19 18 19 18 19 21 22 22 23 21 21 21 21 20 20 20 20 20 20 20 20 21 20 20 19 19 19 19 18 17 17 16 16 15 14 12 11
19 19 19 20 19 19 19 20 20 21 19 20 22 22 23 22 21 20 20 20 21 20 20 20 20 20 20 20 19 19 19 20 20 19 19 19 18 17 16 16 15 14 12
19 18 20 21 22 23 22 22 22 23 22 22 18 17 20 22 22 22 21 21 21 21 21 21 21 21 20 21 20 20 19 20 19 18 18 18 17 16 15 15 13 12 11
20 20 20 20 20 22 23 22 22 23 23 21 21 20 20 21 21 21 20 20 20 21 21 21 22 21 21 21 21 21 21 21 20 18 17 15 15 14 13 12 13 14 11
19 19 20 21 21 21 21 22 20 22 21 21 18 17 17 18 19 21 22 22 21 19 21 21 21 22 21 21 22 22 22 21 19 18 16 15 14 13 13 12 11 10 9
18 17 17 19 20 21 20 21 20 20 19 19 18 17 17 17 17 16 21 22 22 22 22 21 22 22 22 22 22 22 20 19 19 18 16 14 14 13 12 12 11 10 10
Height
1529 1533 1535 1538 1541 1543 1546 1549 1553 1556 1559 1562 1565 1567 1568 1569 1570 1572 1573 1575 1575 1576 1576 1576 1577 1579 1581 1582 1582 1583 1585 1587 1587 1589 1590 1592 1594 1594 1596 1597 1597 1598 1597
1525 1529 1532 1535 1537 1539 1543 1546 1550 1554 1556 1559 1562 1564 1566 1566 1567 1569 1571 1572 1573 1574 1574 1575 1576 1578 1579 1580 1580 1582 1584 1585 1587 1588 1589 1591 1593 1593 1594 1595 1598 1598 1595
1522 1525 1527 1530 1533 1536 1540 1543 1546 1550 1553 1556 1559 1562 1563 1564 1566 1568 1569 1570 1571 1571 1572 1573 1575 1576 1577 1577 1578 1580 1582 1584 1586 1586 1587 1589 1590 1592 1593 1595 1596 1595 1595
1518 1521 1523 1526 1530 1533 1537 1540 1544 1547 1550 1554 1557 1559 1561 1562 1564 1566 1567 1567 1568 1569 1570 1572 1573 1574 1575 1577 1578 1580 1582 1584 1585 1585 1587 1588 1590 1591 1592 1595 1594 1594 1594
1514 1518 1520 1524 1528 1531 1534 1538 1542 1544 1548 1551 1554 1556 1558 1560 1561 1563 1564 1566 1566 1567 1568 1570 1572 1573 1575 1576 1578 1580 1581 1582 1583 1585 1586 1588 1589 1590 1592 1592 1593 1592 1592
1510 1515 1518 1521 1526 1529 1532 1536 1540 1543 1546 1549 1551 1554 1557 1558 1559 1561 1563 1564 1564 1565 1567 1569 1571 1572 1574 1576 1578 1579 1580 1582 1583 1584 1586 1587 1587 1588 1589 1590 1590 1591 1592
1508 1513 1515 1518 1523 1527 1531 1534 1538 1541 1545 1548 1550 1553 1554 1556 1558 1559 1561 1562 1563 1564 1565 1567 1570 1571 1573 1575 1576 1577 1579 1581 1582 1583 1584 1584 1584 1585 1585 1585 1586 1588 1589
1506 1510 1512 1515 1520 1525 1529 1534 1537 1540 1543 1546 1549 1551 1552 1554 1555 1557 1559 1560 1561 1563 1565 1566 1569 1570 1572 1573 1574 1576 1578 1580 1580 1582 1582 1582 1582 1582 1582 1583 1585 1586 1587
1503 1507 1511 1513 1517 1523 1527 1531 1535 1538 1541 1544 1547 1550 1550 1552 1553 1555 1557 1559 1560 1562 1564 1566 1567 1569 1570 1572 1573 1575 1577 1578 1579 1580 1581 1581 1581 1582 1582 1583 1583 1585 1586
1499 1503 1509 1512 1515 1521 1526 1529 1533 1537 1540 1542 1544 1547 1549 1550 1551 1554 1556 1558 1559 1561 1563 1566 1567 1568 1570 1572 1573 1574 1576 1578 1578 1579 1580 1581 1581 1581 1581 1581 1582 1583 1584
1497 1501 1506 1510 1513 1520 1525 1528 1531 1535 1538 1540 1542 1544 1545 1546 1549 1553 1555 1557 1558 1559 1562 1565 1566 1568 1569 1571 1572 1574 1576 1577 1577 1578 1579 1580 1580 1580 1579 1579 1579 1580 1581
1494 1498 1502 1507 1512 1516 1522 1526 1529 1531 1533 1536 1539 1541 1543 1544 1547 1550 1552 1555 1557 1558 1559 1562 1565 1566 1568 1569 1571 1572 1574 1576 1576 1577 1578 1578 1578 1578 1577 1576 1576 1577 1578
1490 1495 1499 1504 1508 1512 1517 1522 1526 1529 1531 1533 1535 1537 1539 1541 1543 1546 1548 1551 1553 1556 1557 1559 1562 1563 1565 1566 1568 1569 1570 1572 1573 1574 1575 1575 1575 1575 1575 1574 1574 1573 1573
1485 1490 1496 1499 1504 1508 1512 1516 1520 1523 1526 1528 1530 1532 1534 1536 1538 1540 1543 1545 1548 1551 1554 1555 1557 1559 1561 1563 1564 1565 1566 1567 1568 1569 1570 1571 1570 1570 1570 1570 1570 1569 1569
1480 1486 1490 1495 1499 1503 1507 1510 1514 1517 1520 1523 1525 1528 1529 1532 1534 1536 1537 1539 1542 1545 1549 1550 1552 1554 1555 1557 1559 1561 1561 1562 1562 1563 1564 1565 1565 1565 1565 1565 1564 1565 1565
1474 1479 1484 1488 1492 1497 1501 1505 1509 1512 1515 1518 1521 1524 1526 1528 1529 1530 1532 1535 1537 1540 1543 1544 1546 1547 1549 1551 1552 1555 1556 1556 1556 1557 1557 1558 1558 1558 1559 1559 1559 1558 1559
1468 1472 1477 1482 1485 1489 1493 1497 1500 1505 1508 1512 1515 1518 1521 1522 1524 1526 1527 1529 1532 1534 1534 1537 1539 1540 1542 1544 1545 1546 1547 1549 1551 1550 1550 1550 1551 1552 1552 1552 1552 1552 1554
1462 1467 1471 1475 1479 1483 1487 1491 1495 1498 1500 1503 1507 1510 1513 1516 1517 1518 1520 1521 1521 1522 1524 1527 1529 1532 1534 1535 1536 1537 1539 1541 1541 1542 1542 1543 1543 1544 1544 1544 1545 1546 1547
1455 1460 1465 1469 1474 1478 1483 1486 1489 1492 1495 1497 1500 1502 1505 1508 1511 1513 1513 1512 1513 1514 1514 1516 1519 1521 1523 1525 1526 1528 1529 1530 1532 1532 1533 1534 1534 1535 1534 1536 1536 1537 1538
1451 1455 1460 1464 1469 1472 1476 1480 1484 1487 1488 1490 1491 1493 1496 1500 1502 1504 1506 1507 1506 1506 1505 1506 1508 1510 1511 1513 1514 1515 1517 1518 1520 1520 1521 1522 1522 1523 1523 1524 1525 1527 1526
1447 1449 1454 1458 1463 1466 1469 1472 1476 1480 1482 1483 1484 1485 1487 1492 1493 1494 1495 1497 1497 1498 1499 1500 1501 1501 1502 1503 1503 1502 1502 1504 1505 1505 1506 1507 1509 1508 1509 1510 1511 1513 1515
1444 1446 1446 1451 1456 1457 1459 1462 1467 1470 1474 1475 1477 1478 1479 1481 1484 1485 1486 1487 1487 1488 1488 1488 1489 1491 1492 1492 1492 1492 1490 1489 1489 1491 1492 1493 1493 1492 1493 1494 1497 1499 1503
1442 1444 1446 1448 1450 1454 1457 1456 1459 1461 1462 1466 1471 1472 1469 1470 1474 1475 1477 1478 1479 1478 1478 1477 1477 1477 1478 1479 1479 1479 1478 1477 1477 1479 1479 1480 1481 1483 1487 1490 1493 1495 1497
1442 1443 1443 1445 1448 1447 1446 1447 1449 1449 1454 1453 1457 1463 1463 1462 1463 1465 1469 1469 1469 1468 1468 1466 1466 1466 1467 1468 1467 1467 1466 1467 1467 1467 1468 1470 1472 1474 1476 1480 1480 1475 1481
1437 1438 1439 1440 1439 1439 1441 1439 1436 1440 1444 1444 1449 1454 1454 1454 1453 1453 1455 1459 1457 1458 1457 1456 1454 1454 1455 1456 1457 1457 1457 1458 1459 1460 1461 1461 1462 1463 1463 1468 1470 1477 1478
1429 1431 1431 1431 1432 1432 1433 1433 1432 1433 1432 1434 1440 1443 1442 1443 1442 1443 1442 1445 1446 1445 1446 1445 1442 1442 1442 1442 1443 1445 1447 1447 1447 1449 1450 1452 1453 1455 1457 1459 1461 1460 1463
Wind_Speed
23 19 20 20 21 23 24 21 21 18 17 15 12 11 10 9 9 9 9 8 6 5 4 4 5 6 5 3 2 4 7 6 4 6 9 10 10 9 7 4 3 5 6
23 20 20 18 20 23 25 23 22 21 18 16 13 13 10 8 9 9 9 8 6 6 4 5 6 5 4 4 5 6 6 6 8 6 10 11 11 11 10 8 4 1 3
24 20 19 18 19 21 23 23 24 24 20 17 14 15 11 9 9 10 9 6 7 5 4 5 6 5 4 3 3 5 7 7 6 6 10 11 11 11 10 9 7 5 2
24 20 19 19 19 20 21 22 21 23 22 17 14 15 10 8 8 9 8 7 6 5 5 5 6 6 5 5 8 9 10 9 7 8 9 8 7 8 10 8 7 9 7
24 20 18 18 20 20 20 22 20 20 17 16 15 15 11 9 7 9 8 7 6 6 5 6 7 6 7 8 10 11 9 8 8 7 7 5 3 3 6 6 6 7 7
25 21 18 20 21 20 20 23 21 19 16 16 17 15 11 9 9 9 9 7 6 6 7 7 6 6 6 7 9 10 9 6 5 6 5 4 5 5 5 6 6 6 4
23 19 18 21 23 21 23 23 21 18 18 18 15 15 12 10 11 10 8 8 7 7 8 8 7 6 8 8 10 9 9 9 8 7 7 7 5 4 5 6 6 6 6
21 19 20 21 23 26 25 24 21 20 18 17 15 13 11 11 12 11 9 8 8 10 10 10 9 7 8 9 9 8 8 8 7 6 5 4 4 4 5 6 5 5 4
23 21 22 23 26 27 26 24 23 21 18 16 15 13 11 13 12 11 10 9 10 11 11 10 9 9 7 7 8 7 7 7 6 5 4 5 4 4 4 5 6 4 3
27 23 24 25 26 27 26 26 24 21 19 17 16 13 12 12 11 10 10 10 12 13 11 12 10 8 8 8 7 7 7 7 6 6 6 5 3 2 3 4 5 5 5
26 25 25 26 24 25 24 23 22 21 20 17 15 13 12 12 12 14 13 12 11 13 12 11 11 10 8 9 8 8 8 8 8 7 6 6 5 4 4 4 5 5 6
30 27 27 28 26 26 26 23 21 19 18 17 17 16 15 14 15 17 15 14 13 13 12 11 11 11 11 12 11 10 11 12 13 11 10 10 10 10 8 8 8 7 6
31 30 28 28 27 26 27 27 25 24 22 22 21 20 18 17 17 19 18 17 16 16 14 12 13 12 14 15 14 14 15 15 14 14 14 13 12 12 14 11 11 10 10
31 30 31 30 29 29 29 29 28 28 27 25 24 22 20 19 19 20 22 21 19 20 19 17 17 17 18 17 17 18 18 18 18 17 17 16 16 16 15 14 14 13 13
30 33 32 32 33 31 29 29 28 27 26 25 24 22 20 19 18 18 19 19 19 21 22 22 22 22 23 23 22 21 20 21 21 20 21 21 20 20 20 18 17 15 15
27 29 32 31 32 33 31 30 29 28 25 24 24 21 20 17 14 12 14 16 16 18 22 26 27 26 27 26 27 26 24 23 23 22 23 24 25 23 23 21 21 20 16
25 26 28 30 30 31 32 32 30 27 27 26 25 24 22 19 16 14 15 16 17 20 27 29 30 29 30 30 30 30 30 28 26 27 28 29 29 26 25 23 22 22 18
21 22 24 25 27 27 29 29 28 28 28 27 26 25 23 22 19 18 19 22 26 29 31 31 32 33 34 34 33 33 34 33 34 33 34 33 32 31 27 27 24 22 20
19 20 22 21 22 23 23 25 25 25 25 26 27 28 25 23 21 22 25 30 30 32 34 34 33 35 36 37 37 37 38 38 37 38 38 38 37 35 34 30 27 27 25
16 18 16 15 15 20 21 19 19 18 19 20 22 25 25 24 27 28 31 34 35 36 36 37 36 37 37 37 37 39 40 41 42 44 43 43 42 42 41 35 34 29 29
12 14 15 14 11 12 16 19 21 20 22 23 24 26 26 21 24 29 32 34 36 38 38 39 38 37 37 37 39 41 41 40 42 43 45 47 46 47 47 46 45 36 33
12 14 17 12 6 8 12 13 14 15 19 22 23 23 22 22 23 25 27 31 34 37 37 38 39 40 38 39 40 41 41 40 41 42 43 43 44 46 47 48 47 46 38
6 15 17 14 22 26 22 15 20 19 20 22 23 21 27 28 28 29 28 28 30 32 33 34 35 36 37 36 37 39 40 40 39 40 42 43 42 42 42 41 36 37 33
9 10 11 19 22 23 27 37 41 35 38 29 29 32 29 30 28 28 28 28 29 31 33 34 34 32 32 33 34 34 34 33 33 36 37 38 38 37 37 33 34 34 32
17 18 18 19 24 27 32 32 30 34 38 32 31 32 29 27 26 32 33 34 31 30 31 30 31 31 31 31 31 32 31 29 28 28 30 31 30 30 29 30 28 27 29
22 24 24 26 27 29 33 37 40 42 41 38 38 34 33 32 30 29 34 30 31 27 29 29 29 29 30 32 32 34 33 30 27 25 25 27 26 24 27 26 26 25 25
Wind_Direction
222 224 222 222 219 216 216 209 200 202 206 207 208 202 206 222 235 240 238 219 255 254 250 219 201 190 198 229 229 213 207 204 182 191 195 189 185 190 183 152 94 65 45
214 219 219 219 216 216 214 211 202 203 206 207 216 216 225 223 231 230 215 243 247 256 216 193 181 177 202 230 251 226 211 215 202 208 197 190 191 199 197 204 154 156 359
211 212 215 214 212 213 212 210 207 208 210 212 220 219 229 221 220 215 239 234 234 228 209 203 190 188 215 217 191 182 184 166 162 199 181 175 190 205 211 210 218 236 259
205 208 215 209 211 206 203 201 206 206 207 213 217 206 201 209 228 231 224 220 224 219 212 209 199 184 172 146 135 139 151 160 163 153 154 170 186 206 211 211 226 235 246
199 207 212 207 204 199 197 199 199 199 202 208 202 191 199 223 238 228 210 216 215 214 195 197 185 176 170 154 152 151 153 161 174 168 174 178 195 204 186 203 199 230 242
200 208 206 202 200 197 195 190 191 190 195 193 189 197 211 232 228 206 210 208 207 202 193 184 176 178 171 165 174 168 169 179 191 203 210 218 273 251 217 209 199 196 224
202 208 208 200 196 197 190 185 187 186 187 188 191 207 222 227 212 205 199 201 204 188 177 164 164 165 160 172 178 182 194 209 223 235 253 271 253 191 181 182 189 199 215
206 212 203 193 190 190 189 189 192 191 191 205 213 207 217 211 205 197 198 198 188 176 170 157 158 164 167 176 177 184 198 212 220 239 247 221 201 184 190 197 202 205 223
202 207 199 185 184 190 193 195 195 198 204 210 213 213 218 209 197 191 203 197 190 183 174 168 172 173 170 182 173 179 190 201 193 182 175 163 154 159 180 185 191 179 215
201 198 200 190 191 197 199 204 203 204 210 215 214 222 211 208 198 208 213 201 195 192 184 183 187 185 193 198 178 172 180 183 180 174 177 176 156 165 191 195 198 204 212
202 200 203 200 196 204 210 208 212 214 217 214 217 225 221 212 212 220 218 212 205 203 198 204 213 216 217 219 201 186 189 200 200 201 213 221 224 241 248 232 208 195 208
207 205 206 208 202 206 213 216 218 226 231 228 226 228 226 223 222 224 223 220 214 213 210 214 221 225 226 230 222 210 212 213 220 220 227 231 238 247 252 248 234 233 237
213 212 211 215 215 216 215 218 219 222 229 230 231 233 232 230 231 228 227 224 218 220 217 218 221 225 227 231 229 223 224 227 230 234 238 241 245 249 246 249 243 246 252
212 218 214 214 219 222 223 227 229 231 227 226 227 231 232 233 234 230 228 225 221 219 219 220 225 226 228 231 230 231 232 233 235 238 241 244 248 246 247 250 244 247 249
218 215 220 218 219 224 228 233 234 236 236 237 236 233 238 244 244 240 235 233 232 229 225 225 229 230 231 231 231 236 236 237 238 242 241 242 246 247 246 248 246 240 245
224 220 218 222 223 223 227 232 234 238 240 241 244 245 249 244 241 234 234 235 236 235 231 233 237 238 239 239 238 241 244 245 246 247 246 243 245 245 245 245 248 244 241
221 226 223 220 222 224 225 227 231 233 237 238 238 238 239 243 232 226 228 228 230 232 230 235 240 241 243 244 244 246 249 251 254 254 253 250 248 248 247 242 245 248 244
222 226 229 229 223 226 227 230 233 234 234 238 240 241 238 236 231 228 229 228 228 227 232 235 241 244 247 249 250 250 253 254 254 255 255 254 252 249 246 246 242 241 242
210 218 217 225 226 225 226 232 235 236 236 239 242 242 241 240 235 234 233 236 239 241 240 241 244 247 248 251 254 255 256 257 257 259 259 257 256 254 251 245 244 242 243
211 212 214 210 213 228 229 226 227 226 229 235 245 256 254 246 244 239 239 243 245 247 249 250 249 251 254 256 259 261 261 261 260 260 258 259 258 257 255 251 247 241 245
196 202 200 208 216 236 238 234 234 235 243 247 254 258 260 260 252 252 250 249 250 253 255 259 261 260 261 263 263 263 264 266 266 264 261 261 259 259 259 257 257 247 244
185 157 159 166 180 208 215 223 238 247 251 251 253 253 258 258 254 250 253 257 258 255 256 260 263 266 267 266 267 267 265 265 266 266 265 264 263 261 258 259 257 256 248
123 193 207 246 239 258 239 233 226 235 240 251 257 253 255 254 258 262 264 266 264 263 261 258 261 264 267 267 266 266 266 266 268 269 268 267 265 264 263 262 258 257 247
228 233 242 240 232 231 255 258 247 248 252 248 258 261 263 268 268 269 271 276 269 266 263 261 261 263 266 267 268 268 268 267 267 267 267 265 268 269 267 263 256 248 240
242 241 237 236 233 237 240 255 255 246 260 256 253 255 256 256 273 281 269 269 270 262 264 264 266 266 263 263 267 269 270 269 267 269 270 268 269 269 265 263 256 254 246
254 245 245 248 244 246 248 254 258 263 267 264 254 250 250 260 263 266 274 263 260 260 265 264 265 261 259 257 258 261 266 265 264 264 263 264 261 257 259 257 253 248 251